Time,TemperatureF,DewpointF,PressureIn,WindDirection,WindDirectionDegrees,WindSpeedMPH,WindSpeedGustMPH,Humidity,HourlyPrecipIn,Conditions,Clouds,dailyrainin,SoftwareType,DateUTC
2013-02-23 00:03:00,30.0,29.0,30.16,East,96,2.0,8.0,95,0.00,,,0.06,,2013-02-23 05:03:00,
2013-02-23 00:12:00,30.0,29.0,30.16,East,96,2.0,8.0,95,0.00,,,0.06,,2013-02-23 05:12:00,
2013-02-23 00:23:00,30.0,29.0,30.15,East,90,2.0,8.0,95,0.00,,,0.06,,2013-02-23 05:23:00,
2013-02-23 00:33:00,30.0,29.0,30.16,East,87,3.0,8.0,95,0.00,,,0.06,,2013-02-23 05:33:00,
2013-02-23 00:42:00,30.0,29.0,30.16,East,87,3.0,8.0,95,0.00,,,0.06,,2013-02-23 05:42:00,
2013-02-23 00:52:00,30.0,29.0,30.16,SE,144,3.0,6.0,95,0.00,,,0.06,,2013-02-23 05:52:00,
2013-02-23 01:02:00,30.0,29.0,30.16,ESE,115,2.0,5.0,95,0.00,,,0.06,,2013-02-23 06:02:00,
2013-02-23 01:11:00,30.0,29.0,30.16,ESE,115,2.0,5.0,95,0.00,,,0.06,,2013-02-23 06:11:00,
2013-02-23 01:23:00,30.0,29.0,30.16,ESE,119,0.0,4.0,95,0.00,,,0.06,,2013-02-23 06:23:00,
2013-02-23 01:32:00,30.0,29.0,30.16,ESE,119,0.0,2.0,95,0.00,,,0.06,,2013-02-23 06:32:00,
2013-02-23 01:42:00,30.0,29.0,30.16,ESE,119,0.0,2.0,95,0.00,,,0.06,,2013-02-23 06:42:00,
2013-02-23 01:51:00,31.0,30.0,30.16,ESE,107,1.0,3.0,95,0.00,,,0.06,,2013-02-23 06:51:00,
2013-02-23 02:01:00,30.0,29.0,30.15,East,92,1.0,5.0,95,0.00,,,0.06,,2013-02-23 07:01:00,
2013-02-23 02:11:00,30.0,29.0,30.15,East,92,1.0,5.0,95,0.00,,,0.06,,2013-02-23 07:11:00,
2013-02-23 02:21:00,31.0,30.0,30.13,SE,135,1.0,4.0,96,0.00,,,0.06,,2013-02-23 07:21:00,
2013-02-23 02:32:00,31.0,30.0,30.11,East,88,2.0,5.0,95,0.00,,,0.06,,2013-02-23 07:32:00,
2013-02-23 02:42:00,31.0,30.0,30.11,East,88,2.0,5.0,95,0.00,,,0.06,,2013-02-23 07:42:00,
2013-02-23 02:52:00,30.0,29.0,30.12,NE,49,1.0,4.0,96,0.00,,,0.06,,2013-02-23 07:52:00,
2013-02-23 03:01:00,30.0,29.0,30.11,NE,49,2.0,5.0,96,0.00,,,0.06,,2013-02-23 08:01:00,
2013-02-23 03:11:00,30.0,29.0,30.11,NE,49,2.0,5.0,96,0.00,,,0.06,,2013-02-23 08:11:00,
2013-02-23 03:21:00,30.0,29.0,30.11,ENE,59,1.0,3.0,96,0.00,,,0.06,,2013-02-23 08:21:00,
2013-02-23 03:32:00,31.0,30.0,30.11,ENE,66,0.0,3.0,96,0.00,,,0.06,,2013-02-23 08:32:00,
2013-02-23 03:42:00,31.0,30.0,30.11,ENE,66,0.0,3.0,96,0.00,,,0.06,,2013-02-23 08:42:00,
2013-02-23 03:53:00,31.0,30.0,30.07,ESE,111,0.0,5.0,96,0.00,,,0.06,,2013-02-23 08:53:00,
2013-02-23 04:02:00,30.0,29.0,30.09,NE,48,1.0,3.0,96,0.00,,,0.06,,2013-02-23 09:02:00,
2013-02-23 04:11:00,30.0,29.0,30.09,NE,48,1.0,3.0,96,0.00,,,0.06,,2013-02-23 09:11:00,
2013-02-23 04:22:00,31.0,30.0,30.10,NE,48,0.0,3.0,96,0.00,,,0.06,,2013-02-23 09:22:00,
2013-02-23 04:32:00,31.0,30.0,30.08,NNE,29,0.0,3.0,97,0.00,,,0.06,,2013-02-23 09:32:00,
2013-02-23 04:42:00,31.0,30.0,30.08,NNE,29,0.0,3.0,97,0.00,,,0.06,,2013-02-23 09:42:00,
2013-02-23 04:52:00,31.0,30.0,30.08,NNE,29,0.0,1.0,97,0.00,,,0.06,,2013-02-23 09:52:00,
2013-02-23 05:01:00,31.0,30.0,30.09,NNE,29,0.0,1.0,97,0.00,,,0.06,,2013-02-23 10:01:00,
2013-02-23 05:11:00,31.0,30.0,30.09,NNE,29,0.0,1.0,97,0.00,,,0.06,,2013-02-23 10:11:00,
2013-02-23 05:21:00,31.0,30.0,30.08,NNE,29,0.0,2.0,97,0.00,,,0.06,,2013-02-23 10:21:00,
2013-02-23 05:32:00,31.0,30.0,30.10,West,268,0.0,5.0,97,0.00,,,0.06,,2013-02-23 10:32:00,
2013-02-23 05:42:00,31.0,30.0,30.10,West,268,0.0,5.0,97,0.00,,,0.06,,2013-02-23 10:42:00,
2013-02-23 05:51:00,31.0,30.0,30.09,West,267,1.0,6.0,97,0.00,,,0.06,,2013-02-23 10:51:00,
2013-02-23 06:02:00,31.0,30.0,30.08,NW,311,0.0,3.0,97,0.00,,,0.06,,2013-02-23 11:02:00,
2013-02-23 06:11:00,31.0,30.0,30.08,NW,311,0.0,3.0,97,0.00,,,0.06,,2013-02-23 11:11:00,
2013-02-23 06:22:00,31.0,30.0,30.05,SSW,205,0.0,3.0,97,0.00,,,0.06,,2013-02-23 11:22:00,
2013-02-23 06:32:00,31.0,30.0,30.05,SSW,205,0.0,2.0,97,0.00,,,0.06,,2013-02-23 11:32:00,
2013-02-23 06:42:00,31.0,30.0,30.05,SSW,205,0.0,2.0,97,0.00,,,0.06,,2013-02-23 11:42:00,
2013-02-23 06:52:00,32.0,31.0,30.04,SSW,205,0.0,3.0,97,0.00,,,0.06,,2013-02-23 11:52:00,
2013-02-23 07:02:00,32.0,31.0,30.04,SSW,205,0.0,1.0,97,0.00,,,0.06,,2013-02-23 12:02:00,
2013-02-23 07:11:00,32.0,31.0,30.04,SSW,205,0.0,1.0,97,0.00,,,0.06,,2013-02-23 12:11:00,
2013-02-23 07:21:00,32.0,31.0,30.04,SSW,205,0.0,3.0,97,0.00,,,0.06,,2013-02-23 12:21:00,
2013-02-23 07:32:00,31.0,30.0,30.04,SSW,205,1.0,3.0,97,0.00,,,0.06,,2013-02-23 12:32:00,
2013-02-23 07:42:00,31.0,30.0,30.04,SSW,205,1.0,3.0,97,0.00,,,0.06,,2013-02-23 12:42:00,
2013-02-23 07:52:00,31.0,30.0,30.05,SSW,205,0.0,4.0,97,0.00,,,0.06,,2013-02-23 12:52:00,
2013-02-23 08:02:00,32.0,31.0,30.06,SSW,205,0.0,0.0,97,0.00,,,0.06,,2013-02-23 13:02:00,
2013-02-23 08:11:00,32.0,31.0,30.06,SSW,205,0.0,0.0,97,0.00,,,0.06,,2013-02-23 13:11:00,
2013-02-23 08:22:00,32.0,31.0,30.05,SSW,205,0.0,2.0,97,0.00,,,0.06,,2013-02-23 13:22:00,
2013-02-23 08:32:00,32.0,31.0,30.05,SSW,205,0.0,0.0,97,0.00,,,0.06,,2013-02-23 13:32:00,
2013-02-23 08:42:00,32.0,31.0,30.05,SSW,205,0.0,0.0,97,0.00,,,0.06,,2013-02-23 13:42:00,
2013-02-23 08:52:00,32.0,31.0,30.05,SSW,205,0.0,0.0,97,0.00,,,0.06,,2013-02-23 13:52:00,
2013-02-23 09:02:00,32.0,31.0,30.04,SSW,205,0.0,1.0,97,0.00,,,0.06,,2013-02-23 14:02:00,
2013-02-23 09:11:00,32.0,31.0,30.04,SSW,205,0.0,1.0,97,0.00,,,0.06,,2013-02-23 14:11:00,
2013-02-23 09:22:00,32.0,31.0,30.04,SSW,205,0.0,2.0,97,0.00,,,0.06,,2013-02-23 14:22:00,
2013-02-23 09:32:00,32.0,31.0,30.03,SSW,205,1.0,3.0,97,0.00,,,0.06,,2013-02-23 14:32:00,
2013-02-23 09:42:00,32.0,31.0,30.03,SSW,205,1.0,3.0,97,0.00,,,0.06,,2013-02-23 14:42:00,
2013-02-23 09:52:00,32.0,31.0,30.02,SSW,202,0.0,3.0,97,0.00,,,0.06,,2013-02-23 14:52:00,
2013-02-23 10:02:00,33.0,32.0,30.02,SSW,202,0.0,2.0,97,0.00,,,0.06,,2013-02-23 15:02:00,
2013-02-23 10:11:00,33.0,32.0,30.02,SSW,202,0.0,2.0,97,0.00,,,0.06,,2013-02-23 15:11:00,
2013-02-23 10:22:00,33.0,32.0,30.01,SSW,202,0.0,2.0,97,0.00,,,0.06,,2013-02-23 15:22:00,
2013-02-23 10:32:00,33.0,32.0,30.02,SSW,202,0.0,2.0,97,0.00,,,0.06,,2013-02-23 15:32:00,
2013-02-23 10:42:00,33.0,32.0,30.02,SSW,202,0.0,2.0,97,0.00,,,0.06,,2013-02-23 15:42:00,
2013-02-23 10:52:00,34.0,33.0,30.01,SSW,202,0.0,1.0,97,0.00,,,0.06,,2013-02-23 15:52:00,
2013-02-23 11:01:00,35.0,34.0,30.02,SSW,202,0.0,2.0,97,0.01,,,0.07,,2013-02-23 16:01:00,
2013-02-23 11:11:00,35.0,34.0,30.02,SSW,202,0.0,2.0,97,0.01,,,0.07,,2013-02-23 16:11:00,
2013-02-23 11:21:00,35.0,34.0,30.04,West,276,2.0,5.0,96,0.02,,,0.08,,2013-02-23 16:21:00,
2013-02-23 11:32:00,35.0,34.0,30.02,West,275,0.0,5.0,96,0.03,,,0.09,,2013-02-23 16:32:00,
2013-02-23 11:42:00,35.0,34.0,30.02,West,275,0.0,5.0,96,0.03,,,0.09,,2013-02-23 16:42:00,
2013-02-23 11:52:00,36.0,35.0,30.02,West,276,0.0,2.0,96,0.03,,,0.09,,2013-02-23 16:52:00,
2013-02-23 12:01:00,36.0,35.0,30.02,West,276,1.0,3.0,95,0.04,,,0.10,,2013-02-23 17:01:00,
2013-02-23 12:11:00,36.0,35.0,30.02,West,276,1.0,3.0,95,0.04,,,0.10,,2013-02-23 17:11:00,
2013-02-23 12:22:00,36.0,35.0,30.02,West,276,1.0,3.0,95,0.04,,,0.10,,2013-02-23 17:22:00,
2013-02-23 12:32:00,37.0,35.0,30.01,West,275,1.0,4.0,93,0.05,,,0.12,,2013-02-23 17:32:00,
2013-02-23 12:42:00,37.0,35.0,30.01,West,275,1.0,4.0,93,0.05,,,0.12,,2013-02-23 17:42:00,
2013-02-23 12:52:00,38.0,36.0,30.00,West,274,1.0,4.0,92,0.04,,,0.12,,2013-02-23 17:52:00,
2013-02-23 13:02:00,39.0,37.0,30.00,West,274,0.0,2.0,91,0.04,,,0.13,,2013-02-23 18:02:00,
2013-02-23 13:12:00,39.0,37.0,30.00,West,274,0.0,2.0,91,0.04,,,0.13,,2013-02-23 18:12:00,
2013-02-23 13:22:00,40.0,37.0,29.99,West,274,0.0,4.0,90,0.04,,,0.14,,2013-02-23 18:22:00,
2013-02-23 13:32:00,42.0,38.0,29.98,West,274,0.0,2.0,86,0.05,,,0.15,,2013-02-23 18:32:00,
2013-02-23 13:42:00,42.0,38.0,29.98,West,274,0.0,2.0,86,0.05,,,0.15,,2013-02-23 18:42:00,
2013-02-23 13:52:00,42.0,38.0,29.98,West,274,0.0,2.0,86,0.05,,,0.15,,2013-02-23 18:52:00,
2013-02-23 14:01:00,42.0,38.0,29.98,West,274,0.0,2.0,86,0.05,,,0.15,,2013-02-23 19:01:00,
2013-02-23 14:11:00,42.0,38.0,29.98,West,274,0.0,2.0,86,0.05,,,0.15,,2013-02-23 19:11:00,
2013-02-23 14:21:00,47.0,41.0,29.95,West,274,0.0,4.0,81,0.03,,,0.16,,2013-02-23 19:21:00,
2013-02-23 14:32:00,47.0,41.0,29.95,West,274,0.0,4.0,81,0.03,,,0.16,,2013-02-23 19:32:00,
2013-02-23 14:42:00,47.0,41.0,29.95,West,274,0.0,4.0,81,0.03,,,0.16,,2013-02-23 19:42:00,
2013-02-23 14:52:00,48.0,42.0,29.93,West,274,0.0,3.0,81,0.02,,,0.15,,2013-02-23 19:52:00,
2013-02-23 15:01:00,48.0,42.0,29.93,West,274,2.0,4.0,81,0.01,,,0.15,,2013-02-23 20:01:00,
2013-02-23 15:11:00,48.0,42.0,29.93,West,274,2.0,4.0,81,0.01,,,0.15,,2013-02-23 20:11:00,
2013-02-23 15:21:00,48.0,42.0,29.92,West,274,0.0,5.0,81,0.00,,,0.15,,2013-02-23 20:21:00,
2013-02-23 15:32:00,49.0,43.0,29.92,West,274,1.0,5.0,79,0.00,,,0.14,,2013-02-23 20:32:00,
2013-02-23 15:42:00,49.0,43.0,29.92,West,274,1.0,5.0,79,0.00,,,0.14,,2013-02-23 20:42:00,
2013-02-23 15:52:00,49.0,43.0,29.92,West,274,1.0,5.0,79,0.00,,,0.14,,2013-02-23 20:52:00,
2013-02-23 16:02:00,50.0,43.0,29.91,West,259,2.0,7.0,77,0.00,,,0.14,,2013-02-23 21:02:00,
2013-02-23 16:11:00,50.0,43.0,29.91,West,259,2.0,7.0,77,0.00,,,0.14,,2013-02-23 21:11:00,
2013-02-23 16:22:00,50.0,43.0,29.92,West,264,3.0,5.0,76,0.00,,,0.14,,2013-02-23 21:22:00,
2013-02-23 16:32:00,50.0,42.0,29.91,West,265,2.0,5.0,75,0.00,,,0.13,,2013-02-23 21:32:00,
2013-02-23 16:42:00,50.0,42.0,29.91,West,265,2.0,5.0,75,0.00,,,0.13,,2013-02-23 21:42:00,
2013-02-23 16:52:00,50.0,42.0,29.91,West,265,0.0,5.0,75,0.00,,,0.13,,2013-02-23 21:52:00,
2013-02-23 17:02:00,51.0,43.0,29.91,West,265,1.0,4.0,74,0.00,,,0.13,,2013-02-23 22:02:00,
2013-02-23 17:11:00,51.0,43.0,29.91,West,265,1.0,4.0,74,0.00,,,0.13,,2013-02-23 22:11:00,
2013-02-23 17:22:00,51.0,43.0,29.91,West,265,1.0,4.0,74,0.00,,,0.13,,2013-02-23 22:22:00,
2013-02-23 17:32:00,51.0,43.0,29.90,West,263,0.0,3.0,73,0.00,,,0.12,,2013-02-23 22:32:00,
2013-02-23 17:42:00,51.0,43.0,29.90,West,263,0.0,3.0,73,0.00,,,0.12,,2013-02-23 22:42:00,
2013-02-23 17:52:00,51.0,43.0,29.89,West,263,0.0,1.0,73,0.00,,,0.12,,2013-02-23 22:52:00,
2013-02-23 18:01:00,50.0,42.0,29.89,West,263,0.0,1.0,74,0.00,,,0.12,,2013-02-23 23:01:00,
2013-02-23 18:11:00,50.0,42.0,29.89,West,263,0.0,1.0,74,0.00,,,0.12,,2013-02-23 23:11:00,
2013-02-23 18:22:00,50.0,42.0,29.89,West,263,0.0,1.0,74,0.00,,,0.12,,2013-02-23 23:22:00,
2013-02-23 18:32:00,50.0,42.0,29.88,West,263,0.0,0.0,74,0.00,,,0.11,,2013-02-23 23:32:00,
2013-02-23 18:42:00,50.0,42.0,29.88,West,263,0.0,0.0,74,0.00,,,0.11,,2013-02-23 23:42:00,
2013-02-23 18:52:00,47.0,41.0,29.88,West,263,0.0,1.0,79,0.00,,,0.11,,2013-02-23 23:52:00,
2013-02-23 19:02:00,47.0,41.0,29.88,West,263,0.0,1.0,79,0.00,,,0.11,,2013-02-24 00:02:00,
2013-02-23 19:11:00,47.0,41.0,29.88,West,263,0.0,1.0,79,0.00,,,0.11,,2013-02-24 00:11:00,
2013-02-23 19:22:00,47.0,41.0,29.88,West,263,0.0,1.0,79,0.00,,,0.11,,2013-02-24 00:22:00,
2013-02-23 19:32:00,45.0,41.0,29.86,West,263,0.0,1.0,85,0.00,,,0.11,,2013-02-24 00:32:00,
2013-02-23 19:42:00,45.0,41.0,29.86,West,263,0.0,1.0,85,0.00,,,0.11,,2013-02-24 00:42:00,
2013-02-23 19:52:00,44.0,40.0,29.86,West,263,0.0,1.0,86,0.00,,,0.11,,2013-02-24 00:52:00,
2013-02-23 20:01:00,44.0,40.0,29.86,West,263,0.0,0.0,87,0.00,,,0.11,,2013-02-24 01:01:00,
2013-02-23 20:11:00,44.0,40.0,29.86,West,263,0.0,0.0,87,0.00,,,0.11,,2013-02-24 01:11:00,
2013-02-23 20:22:00,44.0,40.0,29.86,West,263,0.0,0.0,87,0.00,,,0.11,,2013-02-24 01:22:00,
2013-02-23 20:32:00,43.0,40.0,29.86,West,263,0.0,0.0,88,0.00,,,0.11,,2013-02-24 01:32:00,
2013-02-23 20:42:00,43.0,40.0,29.86,West,263,0.0,0.0,88,0.00,,,0.11,,2013-02-24 01:42:00,
2013-02-23 20:52:00,43.0,40.0,29.85,West,263,0.0,0.0,89,0.00,,,0.11,,2013-02-24 01:52:00,
2013-02-23 21:01:00,43.0,40.0,29.85,West,263,0.0,0.0,89,0.00,,,0.11,,2013-02-24 02:01:00,
2013-02-23 21:11:00,43.0,40.0,29.85,West,263,0.0,0.0,89,0.00,,,0.11,,2013-02-24 02:11:00,
2013-02-23 21:22:00,43.0,40.0,29.85,West,263,0.0,0.0,89,0.00,,,0.11,,2013-02-24 02:22:00,
2013-02-23 21:32:00,42.0,39.0,29.84,West,263,0.0,0.0,90,0.00,,,0.11,,2013-02-24 02:32:00,
2013-02-23 21:42:00,42.0,39.0,29.84,West,263,0.0,0.0,90,0.00,,,0.11,,2013-02-24 02:42:00,
2013-02-23 21:52:00,41.0,39.0,29.84,West,263,0.0,0.0,91,0.00,,,0.11,,2013-02-24 02:52:00,
2013-02-23 22:02:00,41.0,39.0,29.85,West,263,0.0,0.0,91,0.00,,,0.11,,2013-02-24 03:02:00,
2013-02-23 22:11:00,41.0,39.0,29.85,West,263,0.0,0.0,91,0.00,,,0.11,,2013-02-24 03:11:00,
2013-02-23 22:22:00,41.0,39.0,29.85,West,263,0.0,0.0,91,0.00,,,0.11,,2013-02-24 03:22:00,
2013-02-23 22:32:00,41.0,39.0,29.85,West,263,0.0,0.0,92,0.00,,,0.10,,2013-02-24 03:32:00,
2013-02-23 22:42:00,41.0,39.0,29.85,West,263,0.0,0.0,92,0.00,,,0.10,,2013-02-24 03:42:00,
2013-02-23 22:52:00,40.0,38.0,29.86,West,263,0.0,0.0,92,0.00,,,0.10,,2013-02-24 03:52:00,
2013-02-23 23:02:00,40.0,38.0,29.86,West,263,0.0,0.0,92,0.00,,,0.10,,2013-02-24 04:02:00,
2013-02-23 23:11:00,40.0,38.0,29.86,West,263,0.0,0.0,92,0.00,,,0.10,,2013-02-24 04:11:00,
2013-02-23 23:21:00,40.0,38.0,29.86,West,263,0.0,0.0,92,0.00,,,0.10,,2013-02-24 04:21:00,
2013-02-23 23:32:00,40.0,38.0,29.85,West,263,0.0,0.0,93,0.00,,,0.10,,2013-02-24 04:32:00,
2013-02-23 23:42:00,40.0,38.0,29.85,West,263,0.0,0.0,93,0.00,,,0.10,,2013-02-24 04:42:00,
2013-02-23 23:52:00,40.0,38.0,29.85,West,263,0.0,0.0,93,0.00,,,0.10,,2013-02-24 04:52:00,